Search for airport 
image banner adimage banner ad
image banner ad

SIUA - Fazenda Barra do Lagoa Airport

Located in Santa Rita Do Pardo, Brazil

ICAO - SIUA, IATA -

Data provided by Airmate  

General information

Coordinates: S30°7'10" W50°51'13"
Elevation is 118 feet MSL.
Magnetic variation is -17° East
View others Airports in Rio Grande do Sul

Operational data

Open for public use
Current time UTC:
Current local time:
Weather at : SBPA - Salgado Filho ( 34 km )
METAR: SBPA 310400Z 13008KT CAVOK 17/12 Q1023
TAF: TAF SBPA 302100Z 3100/3124 12006KT CAVOK TN13/3108Z TX23/3117Z BECMG 3106/3108 7000 FEW010 BECMG 3110/3112 9999 NSW FEW030 BECMG 3114/3116 12012KT BKN040 BECMG 3120/3122 FEW045 RMK PDW
View NOTAMs / SUP AIP / TFR affecting this airport [VIEW]
Communications frequencies: [VIEW]

Runways:

RWY identifierQFULength (ft)Width (ft)SurfaceLDA (ft)
17147665GRASS
35147665GRASS

Airport contact information

Address: Santa Rita Do Pardo Brazil

Satellite view of SIUA